Regional Weather Roundup
Issued by NWS

Home | Current Version | Previous Version | Graphics & Text | Print | Product List | Glossary On
Versions: 1 2 3 4 5 6 7 8 9 10 11 12 13 14 15 16 17 18 19 20 21 22 23 24 25 26 27 28 29 30 31 32 33 34 35 36 37 38 39 40 41 42 43 44 45 46 47 48 49 50
865
ASUS43 KFSD 282310
RWRSD

WEATHER ROUNDUP FOR SOUTH DAKOTA
NATIONAL WEATHER SERVICE SIOUX FALLS SD
600 PM CDT WED JUN 28 2017

NOTE: "FAIR" INDICATES FEW OR NO CLOUDS BELOW 12,000 FEET WITH NO
SIGNIFICANT WEATHER AND/OR OBSTRUCTIONS TO VISIBILITY.


SDZ001>005-009-010-012>017-290000-
NORTHWEST AND NORTH CENTRAL SOUTH DAKOTA

CITY           SKY/WX    TMP DP  RH WIND       PRES   REMARKS
BUFFALO          N/A     81  25  12 NE5       29.69R
FAITH            N/A     84  31  14 NW7       29.71F
MOBRIDGE       SUNNY     85  34  16 N15       29.65S
$$

SDZ012>016-024>037-041>051-057-063-072>074-290000-
SOUTHWEST AND SOUTH CENTRAL SOUTH DAKOTA

CITY           SKY/WX    TMP DP  RH WIND       PRES   REMARKS
RAPID CTY ARPT TSTM      78  47  33 SW8       29.75R
PIERRE         SUNNY     86  40  19 N13       29.66F
CUSTER         PTSUNNY   69  48  47 E12       29.87R
ELLSWORTH AFB  PTSUNNY   81  41  24 E7        29.73S
PHILIP         MOSUNNY   86  41  20 CALM      29.69F
PINE RIDGE     LGT RAIN  81  46  29 S12G20    29.76
SPEARFISH      TSTM      68  54  60 CALM      29.80R
WINNER         FAIR      90  48  23 NW14      29.69F
$$

SDZ004>011-016>023-039-040-290000-
NORTHEAST SOUTH DAKOTA

CITY           SKY/WX    TMP DP  RH WIND       PRES   REMARKS
ABERDEEN       SUNNY     83  45  26 NW18G25   29.63R
WATERTOWN      MOSUNNY   80  59  48 NW16      29.62S
BROOKINGS      SUNNY     82  59  45 NW16G23   29.62S
SISSETON         N/A     77  64  64 N20G26    29.59R
$$

SDZ017-020-022-023-036>040-048>070-290000-
SOUTHEAST SOUTH DAKOTA

CITY           SKY/WX    TMP DP  RH WIND       PRES   REMARKS
SIOUX FALLS    MOSUNNY   84  63  49 NW15G23   29.62R
HURON          SUNNY     87  44  22 NW17G25   29.62S
CHAMBERLAIN    SUNNY     87  52  30 NW9       29.67S
MITCHELL       SUNNY     88  54  31 N14       29.63S
YANKTON        MOSUNNY   86  61  42 NW12      29.64F
$$

ABBREVIATIONS USED IN REMARKS
   TC - TEMPERATURE IN CELSIUS
  WCI - WIND CHILL INDEX
   HX - HEAT INDEX
  VSB - VISIBILITY





USA.gov is the U.S. government's official web portal to all federal, state and local government web resources and services.